Total_Precipitation_Accumulation
0.97 0.88 0.88 1.01 0.96 0.96 1.05 1.12 0.98 0.89 0.85 0.78 0.72 0.63 0.57 0.53 0.46 0.34 0.37 0.38 0.45 0.57 0.72 0.74 0.60 0.38 0.29 0.33 0.44 0.55 0.62 0.70 0.83 0.80 0.65 0.55 0.51 0.43 0.32 0.24 0.20 0.15 0.11
1.02 1.03 0.91 0.99 1.12 1.14 1.10 1.07 1.03 0.91 0.85 0.84 0.79 0.73 0.64 0.50 0.44 0.38 0.34 0.35 0.36 0.39 0.57 0.77 0.72 0.54 0.42 0.40 0.46 0.51 0.55 0.59 0.70 0.72 0.63 0.54 0.56 0.48 0.36 0.26 0.26 0.20 0.15
1.03 1.04 0.91 0.95 1.07 1.24 1.19 1.11 1.02 0.97 0.80 0.72 0.76 0.77 0.73 0.57 0.45 0.44 0.38 0.34 0.32 0.35 0.49 0.75 0.84 0.70 0.59 0.54 0.48 0.46 0.48 0.52 0.58 0.63 0.61 0.55 0.51 0.47 0.38 0.29 0.30 0.26 0.23
1.04 1.12 1.03 0.97 1.11 1.28 1.41 1.43 1.24 1.11 0.94 0.81 0.81 0.78 0.72 0.68 0.57 0.46 0.40 0.38 0.36 0.34 0.40 0.55 0.77 0.92 0.80 0.63 0.51 0.47 0.43 0.42 0.44 0.50 0.50 0.45 0.37 0.34 0.33 0.33 0.34 0.36 0.34
0.96 1.16 1.24 1.18 1.21 1.35 1.39 1.40 1.36 1.16 1.06 0.97 0.85 0.78 0.68 0.64 0.62 0.45 0.40 0.40 0.44 0.38 0.37 0.36 0.42 0.53 0.62 0.70 0.66 0.52 0.45 0.40 0.38 0.38 0.38 0.31 0.25 0.25 0.29 0.30 0.33 0.35 0.36
1.18 1.33 1.41 1.39 1.39 1.43 1.38 1.48 1.60 1.34 1.12 1.12 1.03 0.86 0.71 0.60 0.58 0.48 0.42 0.39 0.41 0.39 0.36 0.32 0.30 0.19 0.28 0.49 0.58 0.53 0.50 0.47 0.38 0.35 0.34 0.27 0.21 0.21 0.23 0.24 0.26 0.27 0.30
1.40 1.54 1.63 1.65 1.57 1.46 1.46 1.61 1.91 1.77 1.40 1.23 1.23 1.06 0.81 0.63 0.62 0.50 0.44 0.44 0.41 0.41 0.42 0.42 0.33 0.29 0.20 0.21 0.26 0.40 0.48 0.54 0.49 0.42 0.35 0.29 0.22 0.17 0.16 0.18 0.20 0.22 0.24
1.49 1.57 1.78 1.88 1.80 1.75 1.80 1.79 1.95 2.05 1.79 1.55 1.46 1.55 1.29 0.99 0.63 0.45 0.44 0.42 0.42 0.47 0.44 0.47 0.41 0.34 0.31 0.28 0.15 0.20 0.31 0.46 0.52 0.46 0.40 0.35 0.26 0.18 0.14 0.14 0.16 0.19 0.20
1.70 1.66 1.77 1.97 1.93 1.86 1.85 1.99 2.19 2.38 2.27 2.05 1.83 1.84 1.50 1.26 1.14 0.65 0.44 0.43 0.45 0.48 0.49 0.50 0.48 0.42 0.41 0.39 0.30 0.19 0.15 0.23 0.43 0.49 0.46 0.40 0.35 0.25 0.20 0.16 0.15 0.18 0.18
1.62 1.61 1.72 1.93 2.06 2.12 2.14 2.19 2.17 2.39 2.52 2.31 2.26 1.95 1.61 1.42 1.45 1.21 0.76 0.53 0.53 0.51 0.50 0.49 0.44 0.49 0.50 0.50 0.45 0.29 0.18 0.14 0.32 0.53 0.57 0.49 0.39 0.30 0.24 0.18 0.16 0.18 0.20
1.70 1.61 1.66 1.73 1.78 1.85 1.95 2.07 2.12 2.28 2.36 2.44 2.42 2.25 2.00 1.75 1.33 1.27 1.25 0.96 0.72 0.50 0.49 0.53 0.53 0.54 0.55 0.54 0.60 0.42 0.29 0.18 0.22 0.44 0.62 0.65 0.51 0.38 0.29 0.23 0.18 0.17 0.17
1.67 1.58 1.53 1.64 1.66 1.66 1.77 1.88 1.95 2.14 2.26 2.36 2.40 2.26 2.07 1.93 1.68 1.43 1.28 1.20 1.07 0.75 0.56 0.54 0.55 0.58 0.64 0.66 0.62 0.60 0.44 0.27 0.22 0.31 0.45 0.63 0.62 0.50 0.38 0.28 0.23 0.22 0.20
1.31 1.30 1.24 1.30 1.43 1.48 1.65 1.71 1.64 1.68 1.82 1.98 2.13 2.16 2.09 1.95 1.90 1.79 1.62 1.46 1.25 0.92 0.72 0.58 0.49 0.57 0.68 0.77 0.82 0.86 0.55 0.38 0.30 0.29 0.31 0.36 0.48 0.54 0.51 0.44 0.39 0.37 0.34
1.00 0.97 0.97 0.98 1.04 1.12 1.33 1.53 1.51 1.52 1.57 1.64 1.72 1.95 2.01 1.93 1.94 1.76 1.60 1.58 1.37 1.12 0.87 0.66 0.52 0.49 0.58 0.70 0.99 1.09 0.65 0.52 0.41 0.37 0.36 0.31 0.29 0.35 0.48 0.55 0.53 0.51 0.48
0.78 0.75 0.78 0.86 0.91 0.91 1.00 1.12 1.31 1.39 1.43 1.49 1.52 1.65 1.70 1.74 1.73 1.62 1.60 1.51 1.38 1.16 0.99 0.82 0.71 0.61 0.60 0.64 0.92 0.90 0.72 0.66 0.55 0.49 0.43 0.36 0.32 0.29 0.33 0.39 0.43 0.46 0.46
0.70 0.70 0.67 0.68 0.74 0.76 0.85 0.95 1.01 1.12 1.18 1.32 1.49 1.60 1.61 1.62 1.64 1.57 1.53 1.53 1.43 1.19 1.03 0.89 0.77 0.69 0.78 0.76 0.89 0.79 0.84 0.93 0.70 0.55 0.48 0.44 0.37 0.31 0.26 0.24 0.23 0.24 0.26
0.55 0.56 0.58 0.64 0.65 0.66 0.68 0.68 0.72 0.78 0.85 0.95 1.01 1.12 1.32 1.51 1.55 1.54 1.56 1.57 1.52 1.35 1.11 1.03 0.84 0.79 0.90 0.91 0.91 0.85 0.90 0.97 0.80 0.67 0.52 0.46 0.41 0.35 0.31 0.28 0.24 0.20 0.18
0.47 0.48 0.54 0.58 0.57 0.62 0.65 0.65 0.64 0.65 0.73 0.81 0.83 0.84 0.93 1.15 1.29 1.39 1.44 1.46 1.49 1.47 1.28 1.22 1.14 0.91 0.86 0.91 1.01 1.07 1.01 0.99 0.97 0.95 0.81 0.61 0.50 0.42 0.36 0.31 0.26 0.21 0.18
0.58 0.61 0.61 0.64 0.61 0.63 0.62 0.63 0.66 0.66 0.68 0.74 0.78 0.79 0.84 0.94 1.08 1.15 1.25 1.35 1.41 1.52 1.47 1.26 1.28 1.23 1.02 0.99 1.01 1.07 1.11 1.18 1.11 1.07 1.11 0.96 0.76 0.62 0.52 0.43 0.36 0.29 0.23
0.51 0.54 0.62 0.70 0.78 0.82 0.81 0.76 0.74 0.71 0.67 0.70 0.76 0.82 0.83 0.83 0.94 1.15 1.28 1.34 1.37 1.45 1.53 1.44 1.37 1.37 1.21 1.10 1.06 1.08 1.21 1.30 1.29 1.13 1.05 1.03 0.97 0.84 0.69 0.58 0.48 0.41 0.36
0.44 0.45 0.52 0.61 0.71 0.80 0.85 0.83 0.69 0.59 0.60 0.66 0.66 0.67 0.75 0.82 0.84 0.97 1.13 1.35 1.36 1.43 1.49 1.51 1.43 1.31 1.19 1.09 1.02 1.01 1.09 1.29 1.34 1.32 1.26 1.10 0.97 0.83 0.72 0.66 0.60 0.53 0.46
0.38 0.39 0.43 0.42 0.44 0.49 0.64 0.63 0.51 0.43 0.49 0.59 0.66 0.68 0.68 0.69 0.71 0.75 0.77 1.01 1.19 1.28 1.35 1.34 1.37 1.27 1.15 1.08 1.12 1.11 1.05 1.10 1.24 1.25 1.14 1.21 1.16 0.99 0.87 0.75 0.77 0.76 0.69
0.34 0.36 0.31 0.27 0.29 0.32 0.37 0.35 0.40 0.43 0.47 0.52 0.60 0.69 0.73 0.71 0.77 0.84 0.79 0.83 0.92 0.98 1.07 1.15 1.17 1.13 1.11 1.06 1.11 1.13 1.08 1.01 0.94 1.02 1.03 1.11 1.16 1.06 0.94 0.83 0.81 0.74 0.70
0.28 0.36 0.31 0.29 0.32 0.28 0.30 0.34 0.37 0.41 0.55 0.61 0.60 0.61 0.72 0.78 0.83 0.97 0.95 1.02 0.94 0.84 0.82 0.86 0.96 1.00 0.96 1.05 1.13 1.26 1.28 1.13 1.03 1.05 1.02 0.99 0.98 0.92 0.85 0.83 0.83 0.68 0.61
0.19 0.18 0.22 0.37 0.37 0.33 0.40 0.38 0.32 0.40 0.54 0.61 0.57 0.60 0.72 0.81 0.94 1.04 1.09 1.11 1.00 0.90 0.93 0.98 1.04 1.06 1.06 1.12 1.18 1.24 1.26 1.22 1.14 1.11 0.99 0.86 0.81 0.81 0.82 0.77 0.74 0.73 0.66
0.09 0.10 0.14 0.27 0.33 0.34 0.34 0.24 0.25 0.38 0.51 0.59 0.61 0.62 0.83 0.84 0.90 0.95 1.01 1.11 1.11 0.98 0.90 0.91 0.95 0.98 0.97 1.03 1.18 1.20 1.28 1.30 1.17 1.10 0.99 0.83 0.78 0.86 0.91 0.80 0.67 0.62 0.61